Temp
-4 -4 -4 -4 -4 -4 -3 -3 -3 -3 -3 -3 -3 -2 -2 -2 -3 -3 -3 -3 -4 -4 -3 -2 -2 -2 -2 -3 -5 -1 -2 -1 -1 1 1 2 0 3 4 5 3 4 3 2 4 4 4 3 5 7 4 3 2 2
-4 -4 -4 -4 -4 -3 -3 -4 -3 -3 -3 -3 -3 -3 -3 -3 -3 -3 -4 -3 -4 -4 -3 -3 -2 -1 -1 -1 -1 -1 -1 -1 -1 -0 0 1 1 -0 1 3 3 2 3 4 4 4 3 2 2 1 4 3 1 1
-4 -4 -4 -4 -4 -4 -4 -3 -4 -4 -3 -3 -3 -3 -3 -2 -2 -3 -3 -3 -4 -3 -3 -4 -2 0 -0 -1 -1 -2 -1 -0 -1 -2 -1 1 1 1 2 1 3 4 3 3 3 3 3 2 -0 -1 -1 -1 -0 -0
-4 -4 -4 -4 -4 -4 -4 -4 -4 -4 -3 -3 -3 -3 -2 -2 -2 -2 -3 -3 -3 -4 -4 -2 -1 -0 -0 -0 -0 -1 -1 -0 -0 -1 -1 0 -0 1 2 2 2 2 2 2 3 2 2 0 -1 -1 -2 -1 -2 -2
-5 -5 -4 -4 -4 -4 -4 -4 -4 -3 -3 -3 -3 -2 -2 -2 -2 -2 -2 -3 -3 -3 -3 -2 -1 1 1 0 0 -0 -1 -1 -1 -1 -1 0 1 1 1 1 1 -0 0 1 2 -0 -0 -2 -3 -2 -3 -4 -4 -2
-4 -4 -4 -4 -4 -4 -4 -4 -4 -3 -3 -3 -2 -2 -2 -1 -1 -2 -4 -3 -3 -3 -3 -4 -1 1 1 1 1 0 0 -1 -1 -1 0 1 1 1 1 0 -1 -2 -1 -0 -1 -2 -3 -4 -4 -4 -4 -4 -4 -5
-4 -4 -4 -4 -4 -4 -4 -4 -4 -3 -4 -3 -2 -1 -1 -1 -1 -2 -3 -2 -3 -3 -3 -5 -3 -0 -0 0 -0 -0 -0 -1 -0 0 -0 0 1 1 1 1 -2 -2 -3 -3 -2 -1 -2 -4 -6 -5 -5 -5 -6 -6
-4 -4 -4 -4 -4 -4 -4 -4 -3 -3 -2 -2 -1 -1 -1 -2 -3 -3 -2 -1 -3 -3 -3 -3 -3 -3 -0 -0 -0 -0 -1 -1 -1 0 0 0 2 1 -0 -3 -4 -4 -3 -4 -4 -3 -4 -5 -5 -5 -6 -6 -6 -8
-5 -4 -4 -4 -4 -4 -4 -3 -3 -2 -2 -1 -1 -2 -3 -3 -3 -3 -3 -4 -3 -2 -4 -4 -4 -5 -1 -1 -1 -1 -1 -1 -0 -1 -1 1 -1 -2 -4 -5 -5 -6 -5 -5 -4 -4 -4 -4 -6 -7 -7 -8 -8 -11
-4 -4 -4 -4 -4 -4 -3 -3 -2 -1 -2 -2 -2 -3 -3 -2 -3 -4 -3 -3 -3 -2 -2 -2 -2 -4 -2 -2 -1 -2 -1 -4 -0 0 0 -1 -7 -6 -6 -6 -6 -6 -5 -5 -5 -5 -6 -7 -8 -9 -8 -9 -10 -11
-5 -4 -4 -4 -4 -3 -3 -2 -2 -1 -2 -2 -3 -4 -3 -3 -3 -3 -3 -4 -3 -3 -3 -3 -1 -2 -1 -2 0 -1 -0 -0 1 0 1 -3 -5 -6 -7 -8 -7 -7 -7 -7 -7 -7 -7 -7 -8 -10 -11 -10 -10 -10
-5 -4 -4 -4 -3 -3 -2 -2 -2 -2 -2 -1 -2 -3 -3 -3 -3 -3 -2 -2 -2 -1 -2 -2 -1 -1 0 -0 -1 -1 0 -0 2 -0 -1 -5 -8 -8 -8 -8 -9 -9 -9 -8 -9 -9 -9 -9 -9 -9 -10 -10 -10 -10
-4 -4 -3 -3 -2 -1 -2 -2 -2 -2 -1 -1 -1 -3 -2 -3 -2 -3 -4 -1 -1 -1 -1 -1 -0 -0 -0 -0 -1 0 0 -0 -0 -2 -4 -7 -7 -8 -9 -9 -9 -10 -10 -10 -10 -10 -10 -10 -10 -10 -10 -11 -11 -11
-3 -2 -1 -2 -1 -1 -2 -2 -2 -1 -1 -2 -1 -2 -2 -3 -3 -3 -6 -6 -2 -1 -1 -0 -1 -1 0 -1 -1 0 -2 -1 -3 -4 -5 -8 -8 -9 -10 -9 -10 -10 -11 -11 -11 -11 -11 -11 -11 -11 -11 -12 -11 -11
-2 -2 -1 -1 -1 -2 -2 -3 -2 -1 -1 -2 -3 -6 -5 -5 -4 -4 -3 -2 -2 -1 -1 -1 -2 -1 -1 -0 -3 -1 -2 -5 -5 -7 -12 -9 -9 -9 -10 -10 -10 -11 -11 -11 -11 -11 -11 -11 -11 -11 -11 -11 -11 -11
-2 -1 -1 -1 -2 -2 -3 -2 -2 -1 -3 -3 -5 -7 -5 -5 -6 -4 -3 -3 -2 -1 -1 -1 -6 -5 -3 -5 -4 -8 -5 -6 -10 -15 -10 -9 -9 -10 -10 -11 -11 -10 -10 -10 -10 -10 -11 -11 -11 -11 -11 -12 -12 -12
-1 -1 -1 -2 -2 -3 -3 -2 -2 -4 -4 -5 -7 -7 -6 -6 -6 -5 -5 -3 -2 -2 -6 -6 -6 -4 -4 -8 -7 -11 -12 -15 -11 -10 -9 -9 -10 -10 -11 -11 -11 -11 -11 -11 -11 -11 -11 -11 -11 -12 -12 -12 -13 -13
-1 -2 -2 -2 -3 -3 -2 -2 -5 -5 -7 -6 -7 -7 -7 -7 -6 -6 -5 -4 -3 -2 -3 -4 -5 -9 -11 -7 -10 -14 -11 -11 -10 -9 -10 -10 -11 -11 -11 -11 -11 -11 -11 -11 -12 -12 -12 -12 -12 -12 -13 -13 -13 -14
-2 -2 -2 -3 -2 -1 -2 -4 -4 -6 -7 -7 -7 -7 -7 -8 -7 -6 -6 -5 -4 -3 -3 -6 -10 -11 -13 -12 -12 -11 -10 -10 -10 -10 -11 -11 -11 -11 -11 -11 -11 -11 -11 -12 -12 -12 -12 -13 -13 -13 -13 -14 -14 -15
-2 -2 -3 -2 -1 -2 -5 -5 -5 -6 -7 -7 -7 -7 -8 -8 -7 -7 -6 -5 -4 -6 -9 -12 -14 -11 -10 -9 -8 -8 -9 -9 -10 -11 -11 -11 -11 -11 -11 -11 -11 -11 -11 -12 -12 -12 -13 -13 -13 -13 -14 -15 -15 -15
-2 -2 -2 -1 -2 -3 -5 -5 -6 -6 -7 -7 -7 -7 -8 -8 -8 -8 -8 -7 -8 -10 -11 -10 -10 -9 -8 -7 -8 -8 -9 -9 -9 -9 -10 -11 -11 -11 -11 -11 -11 -12 -12 -12 -13 -13 -13 -14 -14 -15 -15 -15 -16 -16
-3 -4 -2 -2 -4 -5 -5 -5 -6 -6 -6 -7 -7 -7 -8 -8 -9 -9 -9 -9 -11 -11 -10 -10 -9 -9 -8 -9 -9 -9 -9 -9 -9 -10 -10 -10 -11 -11 -11 -11 -12 -12 -13 -13 -14 -14 -14 -15 -15 -16 -16 -17 -17 -17
-3 -3 -3 -5 -5 -5 -6 -6 -5 -5 -9 -7 -7 -8 -10 -8 -8 -9 -11 -11 -11 -10 -9 -9 -9 -9 -9 -10 -10 -10 -10 -9 -9 -10 -10 -11 -11 -11 -12 -12 -13 -13 -13 -14 -14 -15 -15 -15 -16 -17 -17 -17 -17 -18
-3 -4 -4 -4 -5 -8 -6 -5 -5 -6 -6 -8 -9 -10 -11 -9 -9 -10 -14 -12 -11 -10 -10 -9 -9 -10 -10 -10 -10 -10 -10 -10 -10 -11 -11 -11 -11 -12 -12 -13 -13 -14 -14 -15 -15 -15 -16 -16 -16 -17 -17 -18 -18 -18
-3 -6 -4 -9 -5 -8 -10 -11 -9 -9 -10 -12 -11 -12 -11 -8 -14 -16 -14 -12 -11 -10 -10 -10 -9 -9 -9 -10 -10 -10 -11 -11 -10 -11 -12 -12 -12 -13 -13 -13 -14 -14 -15 -15 -15 -16 -16 -17 -17 -17 -18 -18 -18 -19
-8 -8 -9 -8 -8 -9 -9 -11 -12 -12 -14 -13 -13 -9 -9 -15 -14 -14 -12 -11 -11 -10 -10 -10 -9 -10 -10 -10 -10 -11 -11 -12 -12 -12 -12 -13 -14 -14 -14 -14 -15 -15 -15 -15 -16 -16 -16 -17 -17 -18 -18 -19 -19 -19
-10 -11 -9 -9 -8 -8 -11 -9 -9 -12 -14 -13 -12 -14 -16 -14 -15 -13 -12 -11 -10 -10 -10 -10 -10 -9 -10 -11 -11 -12 -12 -12 -13 -12 -12 -13 -13 -14 -14 -14 -15 -15 -15 -15 -16 -16 -16 -17 -17 -18 -18 -18 -19 -19
-10 -10 -11 -12 -12 -11 -17 -19 -18 -16 -15 -11 -11 -17 -15 -15 -15 -12 -11 -11 -10 -10 -10 -11 -11 -11 -11 -11 -11 -12 -12 -12 -12 -12 -13 -13 -13 -14 -14 -14 -15 -15 -15 -16 -16 -16 -17 -17 -18 -18 -18 -18 -19 -19
-11 -11 -11 -16 -14 -14 -15 -18 -16 -14 -13 -12 -18 -18 -15 -14 -14 -12 -11 -10 -10 -10 -10 -11 -11 -11 -11 -11 -12 -12 -13 -13 -13 -13 -14 -14 -14 -14 -15 -15 -15 -16 -16 -16 -16 -17 -17 -17 -18 -18 -18 -18 -19 -19
-11 -11 -13 -15 -19 -18 -15 -15 -14 -14 -13 -13 -14 -14 -15 -15 -14 -12 -10 -10 -10 -10 -10 -10 -11 -11 -11 -12 -12 -12 -13 -13 -14 -14 -14 -14 -14 -15 -15 -15 -15 -15 -16 -16 -17 -17 -17 -17 -18 -18 -18 -18 -19 -19
-11 -12 -13 -14 -17 -15 -15 -14 -14 -14 -14 -14 -13 -14 -15 -15 -14 -13 -12 -11 -11 -11 -11 -11 -12 -12 -13 -13 -13 -13 -13 -13 -14 -14 -14 -14 -15 -15 -15 -16 -16 -16 -16 -17 -17 -17 -18 -18 -18 -18 -19 -19 -19 -19
-12 -13 -14 -19 -15 -14 -14 -14 -14 -14 -14 -14 -14 -14 -14 -14 -14 -14 -13 -13 -13 -12 -12 -13 -13 -13 -13 -13 -13 -14 -13 -14 -14 -14 -15 -15 -15 -15 -16 -16 -16 -17 -17 -17 -18 -18 -18 -18 -19 -19 -19 -19 -19 -19
-13 -13 -13 -14 -14 -15 -14 -13 -13 -14 -14 -13 -13 -13 -13 -14 -15 -14 -14 -14 -14 -14 -14 -14 -14 -14 -14 -14 -14 -14 -14 -14 -14 -15 -15 -15 -16 -16 -17 -17 -17 -17 -17 -18 -18 -18 -18 -19 -19 -19 -19 -19 -20 -20
Height
1403 1407 1409 1412 1416 1419 1423 1426 1428 1431 1433 1436 1438 1441 1444 1446 1449 1450 1453 1457 1460 1460 1458 1458 1458 1457 1457 1457 1458 1452 1450 1446 1440 1431 1426 1423 1426 1419 1417 1413 1417 1418 1425 1428 1423 1425 1424 1410 1403 1404 1410 1407 1402 1398
1398 1401 1405 1408 1411 1415 1418 1421 1424 1426 1429 1431 1433 1436 1439 1442 1445 1447 1449 1452 1456 1458 1455 1453 1453 1452 1453 1455 1455 1454 1453 1452 1448 1443 1437 1431 1428 1429 1428 1423 1415 1424 1418 1418 1418 1415 1416 1415 1415 1413 1407 1408 1408 1402
1391 1396 1399 1403 1406 1409 1413 1416 1418 1421 1423 1426 1428 1431 1433 1436 1440 1443 1444 1448 1452 1454 1452 1449 1443 1446 1448 1448 1452 1453 1449 1449 1449 1448 1443 1436 1432 1431 1427 1427 1421 1417 1416 1414 1411 1415 1416 1417 1417 1415 1413 1411 1412 1410
1386 1390 1394 1398 1401 1404 1407 1410 1413 1415 1417 1420 1422 1425 1427 1430 1434 1437 1438 1441 1447 1450 1450 1441 1439 1439 1440 1441 1442 1443 1446 1447 1447 1446 1444 1437 1437 1432 1428 1427 1425 1423 1419 1417 1414 1417 1417 1420 1421 1420 1419 1417 1416 1415
1379 1382 1387 1392 1395 1399 1402 1404 1406 1409 1412 1414 1416 1418 1421 1423 1426 1429 1430 1430 1437 1445 1443 1439 1436 1434 1435 1436 1437 1439 1442 1445 1446 1446 1442 1439 1435 1433 1429 1427 1425 1426 1424 1422 1418 1421 1420 1426 1425 1423 1422 1422 1422 1421
1373 1377 1382 1386 1390 1393 1396 1398 1401 1404 1406 1408 1410 1412 1413 1414 1414 1418 1421 1424 1428 1434 1439 1442 1435 1431 1433 1432 1433 1436 1439 1442 1445 1442 1440 1436 1433 1433 1428 1428 1431 1428 1426 1422 1425 1425 1424 1427 1427 1427 1426 1427 1426 1427
1368 1372 1377 1381 1385 1388 1391 1393 1396 1398 1400 1403 1405 1406 1408 1409 1409 1412 1414 1414 1421 1433 1440 1440 1433 1430 1430 1430 1432 1435 1437 1439 1442 1441 1438 1436 1433 1431 1427 1426 1431 1432 1429 1427 1426 1426 1426 1428 1430 1429 1430 1430 1431 1430
1363 1368 1372 1376 1380 1383 1385 1388 1391 1393 1395 1397 1399 1400 1402 1405 1409 1411 1412 1413 1423 1434 1437 1439 1434 1431 1429 1429 1429 1431 1433 1437 1438 1437 1435 1433 1430 1428 1428 1434 1434 1433 1433 1431 1429 1428 1429 1431 1432 1432 1434 1434 1433 1434
1358 1362 1367 1370 1374 1377 1380 1383 1386 1389 1391 1394 1395 1400 1405 1410 1411 1414 1416 1423 1429 1434 1434 1436 1436 1434 1427 1428 1429 1431 1432 1435 1434 1432 1431 1431 1429 1431 1436 1436 1436 1434 1434 1434 1435 1433 1433 1433 1434 1435 1436 1435 1435 1436
1352 1356 1360 1364 1368 1372 1376 1379 1382 1384 1386 1391 1396 1403 1410 1413 1415 1419 1428 1431 1432 1431 1431 1429 1428 1429 1428 1426 1426 1429 1429 1431 1429 1426 1425 1428 1439 1438 1437 1437 1436 1436 1435 1435 1435 1435 1436 1437 1437 1437 1438 1439 1438 1437
1345 1350 1354 1358 1363 1366 1370 1375 1381 1382 1388 1394 1399 1405 1411 1416 1418 1420 1424 1428 1428 1427 1423 1420 1420 1421 1422 1423 1420 1424 1423 1423 1419 1420 1419 1428 1434 1437 1438 1438 1437 1437 1436 1436 1436 1436 1437 1437 1438 1439 1439 1439 1439 1441
1339 1343 1348 1352 1356 1360 1365 1372 1377 1381 1388 1393 1396 1408 1413 1417 1419 1421 1421 1423 1421 1416 1414 1414 1414 1415 1416 1416 1415 1416 1415 1417 1410 1417 1420 1433 1436 1437 1438 1438 1438 1438 1438 1438 1438 1437 1437 1438 1439 1439 1440 1441 1443 1444
1332 1336 1340 1345 1351 1357 1363 1370 1378 1384 1389 1395 1403 1409 1412 1416 1417 1418 1421 1413 1412 1410 1409 1410 1411 1413 1413 1412 1412 1412 1413 1416 1414 1421 1428 1435 1436 1438 1439 1439 1439 1439 1439 1439 1439 1439 1440 1440 1441 1441 1442 1445 1446 1446
1325 1331 1337 1344 1349 1356 1364 1370 1379 1387 1391 1395 1400 1407 1408 1410 1408 1406 1410 1409 1408 1408 1407 1407 1410 1411 1412 1412 1413 1412 1416 1415 1423 1428 1428 1435 1436 1438 1439 1439 1440 1440 1441 1441 1442 1442 1443 1444 1445 1446 1448 1449 1450 1450
1323 1330 1337 1344 1351 1358 1367 1377 1384 1388 1390 1395 1398 1406 1406 1405 1405 1406 1407 1408 1408 1407 1408 1408 1411 1412 1413 1414 1416 1415 1419 1428 1428 1432 1437 1436 1438 1439 1440 1441 1441 1442 1443 1444 1445 1446 1447 1448 1449 1450 1450 1451 1451 1452
1324 1333 1339 1346 1354 1363 1373 1380 1385 1388 1392 1396 1400 1404 1404 1405 1406 1406 1407 1407 1408 1408 1408 1410 1413 1417 1417 1420 1422 1433 1429 1433 1438 1435 1436 1438 1439 1441 1442 1443 1444 1445 1446 1447 1449 1450 1451 1452 1453 1453 1454 1454 1455 1455
1328 1331 1341 1351 1361 1370 1379 1384 1388 1391 1395 1399 1403 1404 1404 1405 1406 1407 1408 1408 1408 1408 1411 1411 1419 1420 1420 1428 1431 1435 1439 1437 1433 1435 1438 1440 1441 1443 1444 1446 1448 1449 1450 1451 1453 1454 1454 1455 1456 1456 1457 1457 1457 1457
1330 1340 1350 1358 1368 1376 1382 1386 1391 1396 1400 1403 1404 1406 1406 1407 1408 1408 1409 1408 1409 1410 1411 1415 1417 1426 1435 1430 1435 1434 1434 1435 1437 1439 1441 1442 1444 1446 1448 1450 1451 1453 1454 1455 1456 1457 1457 1458 1458 1458 1458 1458 1458 1457
1341 1351 1360 1367 1374 1379 1385 1392 1394 1398 1403 1405 1407 1408 1409 1410 1411 1411 1411 1411 1411 1412 1414 1417 1424 1431 1433 1429 1429 1431 1434 1436 1439 1442 1444 1446 1447 1449 1450 1452 1454 1455 1456 1457 1458 1458 1458 1459 1459 1459 1458 1458 1458 1457
1353 1361 1368 1374 1379 1380 1387 1394 1396 1399 1405 1408 1409 1410 1411 1412 1413 1413 1413 1413 1413 1414 1418 1424 1428 1428 1428 1428 1430 1433 1436 1438 1440 1443 1446 1448 1450 1452 1453 1455 1456 1457 1458 1458 1458 1459 1459 1459 1459 1458 1457 1457 1456 1456
1362 1367 1372 1377 1380 1384 1391 1395 1398 1402 1406 1409 1411 1412 1414 1414 1415 1415 1415 1415 1416 1422 1425 1427 1428 1428 1429 1431 1434 1436 1439 1441 1442 1444 1446 1450 1453 1454 1455 1456 1457 1458 1459 1459 1459 1459 1459 1458 1457 1457 1456 1455 1455 1454
1367 1372 1376 1379 1384 1390 1395 1398 1400 1404 1408 1410 1412 1413 1415 1417 1418 1418 1419 1419 1424 1426 1426 1428 1429 1431 1433 1435 1437 1440 1442 1444 1446 1448 1450 1451 1452 1454 1455 1456 1457 1458 1458 1458 1458 1458 1458 1457 1456 1455 1454 1454 1453 1453
1372 1376 1379 1383 1388 1393 1401 1400 1401 1404 1409 1411 1412 1414 1416 1417 1418 1419 1421 1424 1425 1426 1427 1429 1431 1434 1435 1438 1440 1442 1444 1446 1447 1449 1451 1452 1454 1455 1456 1457 1457 1457 1457 1457 1457 1457 1456 1456 1454 1454 1453 1453 1452 1451
1376 1379 1383 1385 1389 1396 1399 1400 1402 1405 1408 1411 1413 1417 1417 1417 1419 1420 1425 1425 1426 1428 1430 1431 1433 1435 1438 1441 1442 1444 1446 1448 1449 1451 1452 1454 1455 1455 1456 1456 1457 1457 1457 1456 1456 1456 1455 1454 1453 1453 1452 1451 1450 1450
1379 1385 1385 1387 1389 1393 1398 1401 1402 1405 1410 1411 1414 1417 1415 1416 1421 1425 1424 1425 1426 1428 1430 1433 1435 1437 1438 1441 1444 1446 1448 1450 1450 1451 1453 1454 1455 1455 1456 1456 1456 1456 1456 1456 1455 1454 1453 1453 1452 1451 1451 1450 1448 1447
1381 1385 1386 1386 1389 1391 1395 1402 1403 1405 1407 1411 1412 1411 1412 1416 1423 1425 1421 1422 1425 1428 1431 1434 1436 1439 1442 1444 1445 1447 1449 1450 1452 1452 1453 1454 1454 1455 1455 1455 1455 1455 1455 1454 1453 1452 1451 1450 1449 1449 1448 1447 1446 1445
1385 1387 1387 1388 1388 1389 1393 1396 1398 1399 1406 1409 1409 1412 1415 1424 1426 1421 1420 1422 1425 1429 1433 1436 1439 1441 1442 1444 1446 1448 1449 1451 1452 1452 1452 1453 1453 1453 1454 1454 1453 1454 1452 1451 1450 1449 1448 1447 1447 1446 1445 1443 1442 1441
1385 1387 1388 1391 1391 1393 1397 1401 1404 1407 1406 1406 1407 1417 1418 1419 1421 1420 1420 1423 1426 1430 1433 1437 1439 1441 1443 1445 1447 1448 1449 1450 1451 1451 1452 1452 1452 1452 1452 1452 1451 1451 1450 1449 1448 1447 1446 1445 1444 1443 1442 1441 1440 1438
1386 1388 1390 1394 1395 1399 1403 1405 1406 1406 1407 1406 1410 1416 1417 1418 1418 1419 1421 1425 1428 1432 1434 1437 1439 1442 1444 1445 1447 1448 1449 1450 1451 1451 1451 1452 1452 1452 1451 1450 1449 1448 1447 1447 1446 1445 1444 1443 1442 1441 1440 1439 1438 1436
1389 1390 1392 1398 1403 1407 1407 1406 1406 1406 1407 1408 1409 1413 1416 1419 1420 1422 1425 1428 1431 1433 1436 1439 1441 1442 1444 1445 1447 1448 1449 1450 1450 1451 1451 1451 1450 1450 1449 1448 1448 1447 1446 1445 1444 1443 1442 1441 1440 1439 1438 1437 1435 1434
1390 1391 1395 1400 1406 1409 1409 1409 1409 1409 1409 1410 1411 1412 1416 1421 1424 1425 1428 1430 1433 1435 1437 1439 1441 1442 1444 1445 1446 1447 1448 1449 1449 1449 1449 1449 1449 1448 1448 1447 1447 1446 1445 1444 1443 1443 1442 1440 1439 1438 1436 1435 1433 1431
1391 1392 1395 1403 1408 1410 1410 1411 1412 1414 1416 1416 1417 1418 1421 1422 1426 1428 1429 1432 1434 1436 1438 1440 1441 1442 1444 1445 1446 1447 1448 1448 1448 1449 1449 1448 1448 1448 1447 1447 1446 1445 1444 1444 1443 1442 1441 1439 1438 1436 1434 1432 1430 1428
1395 1396 1396 1400 1405 1407 1409 1410 1413 1417 1418 1420 1421 1421 1422 1424 1426 1429 1430 1432 1435 1437 1438 1439 1440 1442 1444 1445 1446 1447 1447 1448 1448 1448 1448 1448 1448 1448 1447 1446 1446 1445 1444 1443 1441 1440 1439 1437 1435 1434 1432 1429 1427 1424
Wind_Speed
22 20 16 21 21 19 20 19 18 17 18 19 18 17 16 15 15 17 18 18 18 6 13 13 7 8 8 3 2 8 9 4 4 3 3 3 2 3 2 1 3 4 4 3 3 4 7 13 7 0 1 8 16 24
27 22 16 22 23 21 21 21 20 20 18 17 17 17 17 17 18 18 21 19 20 17 9 8 14 22 25 22 14 5 6 5 4 3 3 3 2 3 4 2 2 1 3 3 5 2 5 9 6 10 11 11 13 22
23 20 17 26 24 22 22 21 21 21 20 19 19 19 19 20 21 23 25 22 20 18 21 24 26 23 25 27 16 7 4 5 4 9 4 2 2 2 2 2 4 4 2 3 1 5 8 12 12 13 17 21 17 19
22 23 22 28 22 21 21 22 23 22 19 19 20 22 23 22 23 24 29 29 26 6 4 10 7 11 8 10 19 27 24 8 9 13 5 2 2 1 2 3 2 2 6 5 2 5 13 16 13 13 16 19 19 20
28 26 29 27 22 21 22 23 21 19 19 21 20 21 21 25 31 29 30 38 32 21 4 6 12 10 11 15 15 16 23 23 14 4 3 2 3 3 2 2 2 5 3 2 2 7 7 10 11 12 17 18 16 18
24 25 26 22 20 21 20 19 19 19 19 17 20 22 24 25 27 33 11 32 36 33 3 2 6 4 5 5 15 12 13 16 10 4 3 5 3 2 2 1 5 12 10 5 3 16 19 16 16 15 17 16 15 16
25 23 21 20 21 21 21 21 19 18 18 18 18 18 15 18 18 19 8 9 38 27 4 3 5 2 2 5 7 11 11 7 7 4 4 4 5 5 1 1 7 10 13 12 5 3 11 11 10 14 14 14 12 13
24 22 22 23 22 20 19 19 17 16 18 15 15 14 10 15 17 12 8 17 33 14 5 2 4 5 5 3 2 5 6 9 7 5 2 3 3 3 1 4 6 8 7 14 16 15 16 12 11 12 10 8 8 10
24 24 24 25 24 20 18 16 18 17 13 14 20 22 25 13 5 10 20 32 19 3 8 4 3 3 3 4 5 6 6 3 5 3 3 3 0 2 3 4 8 10 7 5 5 8 8 8 9 8 7 8 9 11
26 25 24 24 22 20 20 20 14 11 31 27 34 8 6 12 27 32 16 6 6 4 5 4 7 2 7 4 4 4 2 2 3 5 5 1 1 5 4 4 4 6 7 3 1 4 5 6 6 7 8 8 9 11
23 24 24 23 24 24 21 24 19 30 35 23 5 4 33 27 4 4 5 5 6 3 6 7 14 4 9 3 3 10 4 4 3 3 2 2 2 3 4 4 5 6 7 7 5 3 2 2 4 6 8 8 9 9
26 24 25 27 24 23 25 20 44 37 22 11 16 22 14 3 2 3 3 3 4 4 5 4 5 9 5 6 4 5 3 2 2 7 2 1 1 7 4 3 4 5 4 4 5 5 5 4 4 4 7 9 10 11
26 25 23 22 24 26 26 44 40 29 26 31 11 5 6 3 3 4 6 3 3 3 5 5 2 5 4 4 1 1 1 2 4 2 2 1 9 7 4 3 4 4 4 4 5 6 6 7 10 12 14 14 13 14
25 20 26 28 29 31 45 47 36 34 22 5 5 6 4 4 5 4 3 3 1 2 5 9 4 1 0 2 1 0 1 1 2 0 3 1 9 6 2 1 3 3 4 6 9 11 13 14 16 16 15 14 11 11
27 26 24 27 31 45 48 43 28 22 5 4 4 4 4 1 2 3 4 4 2 2 5 6 4 2 1 1 1 2 2 1 2 2 2 9 9 5 3 4 5 8 9 11 12 13 14 13 13 14 13 11 9 9
31 28 30 38 46 46 44 33 24 7 4 3 4 3 3 3 2 3 3 3 1 3 4 2 2 3 1 2 3 2 3 3 3 2 9 11 8 8 8 9 10 12 12 13 13 13 13 11 10 9 8 6 6 6
35 34 47 49 49 43 34 23 8 5 4 3 3 8 7 7 5 3 2 1 2 2 1 3 4 1 1 3 1 0 4 3 5 13 11 9 11 12 12 12 13 14 14 13 12 11 9 8 7 6 5 5 5 5
45 50 51 47 44 31 22 11 5 3 5 5 3 5 11 7 4 6 4 4 2 3 2 2 3 4 3 3 2 3 4 12 15 13 12 12 11 11 12 14 14 13 13 11 10 9 8 6 4 3 2 2 2 3
57 52 45 43 35 21 5 3 3 5 5 6 7 7 8 8 10 7 5 8 8 8 9 4 4 1 2 3 3 11 20 20 18 15 13 12 13 14 14 14 13 11 9 7 5 3 1 0 1 3 5 6 5 6
49 40 33 32 24 4 5 4 5 6 3 3 6 5 5 6 5 7 6 6 6 4 6 3 2 1 2 4 11 19 17 19 22 21 16 14 13 12 11 11 9 7 5 3 3 2 1 2 4 4 4 6 9 8
37 29 27 23 11 8 6 4 5 5 6 5 9 3 4 5 5 5 6 5 6 4 2 3 5 9 12 14 14 13 15 16 18 20 21 17 12 11 10 8 6 4 3 2 0 1 3 5 6 6 5 5 7 8
22 20 18 10 7 5 6 4 8 7 4 7 5 4 4 2 2 2 3 6 4 2 4 11 14 14 15 15 14 14 15 13 11 14 13 12 12 10 8 5 3 2 3 2 3 4 6 6 7 6 5 5 5 5
21 16 5 4 5 4 4 6 3 3 3 4 4 3 1 2 2 3 4 3 3 7 14 15 14 14 17 17 16 14 11 11 13 12 11 10 9 7 5 4 3 2 3 4 5 6 6 5 6 4 5 5 7 8
10 4 3 3 4 2 6 3 4 5 5 2 2 2 1 4 5 3 2 2 8 14 14 15 17 20 18 16 15 13 11 9 11 11 8 6 5 4 3 3 3 3 3 4 4 5 5 7 6 6 6 8 9 10
3 4 2 3 4 5 4 2 2 3 2 2 3 0 2 5 2 1 3 5 15 16 17 17 17 16 19 17 14 12 10 6 6 8 8 5 3 3 3 2 1 2 3 4 6 7 8 9 8 8 8 9 9 9
4 5 3 1 2 4 4 4 4 5 3 2 2 3 3 3 3 2 2 14 20 20 20 17 16 15 13 10 13 12 10 8 5 4 4 5 4 2 2 3 5 6 7 8 9 9 9 9 10 10 11 11 11 11
3 1 3 4 3 5 5 5 4 4 3 4 3 2 3 3 3 2 8 15 20 19 15 12 9 8 11 14 12 10 8 7 4 3 2 3 4 5 6 7 8 8 9 9 9 8 7 8 9 10 11 11 11 11
3 3 4 3 7 7 4 3 3 2 1 1 4 2 5 6 4 4 6 14 18 19 18 15 11 7 10 11 8 6 6 5 3 1 1 1 2 2 2 4 7 8 8 8 8 7 7 8 8 8 9 9 9 9
4 4 4 5 5 6 6 2 1 2 1 1 3 2 3 2 3 7 17 18 20 19 16 15 13 11 10 9 8 7 6 4 3 3 2 2 3 4 5 7 7 7 7 7 8 7 7 8 8 9 10 10 11 12
3 3 6 4 4 2 4 4 2 4 5 7 7 8 8 7 8 15 18 16 16 16 13 11 10 8 6 6 6 6 5 4 4 4 3 4 5 5 6 6 6 6 5 5 6 7 8 9 10 10 11 12 13 13
4 4 5 5 4 7 14 14 11 7 4 6 10 19 13 9 12 12 14 14 14 14 14 12 11 9 7 5 4 4 3 3 2 2 4 5 5 5 5 4 4 4 5 6 7 8 9 10 11 11 12 13 14 15
3 3 6 4 3 9 5 3 5 6 6 8 7 9 12 5 4 6 12 13 12 11 10 8 6 8 7 6 6 4 2 2 2 3 3 3 3 3 4 4 5 6 7 8 8 9 10 11 12 12 13 13 15 16
5 8 9 7 6 6 6 5 4 4 4 3 3 2 4 4 4 7 13 14 11 8 10 11 10 8 7 6 4 3 2 1 2 1 1 1 2 3 4 5 6 7 8 9 10 11 11 12 13 13 15 16 17 19
Wind_Direction
232 235 242 216 212 219 223 237 238 249 251 248 244 240 238 231 224 229 234 227 221 231 258 247 246 232 233 240 180 329 342 2 306 319 344 356 17 360 358 262 186 156 154 197 182 213 256 3 346 37 104 50 62 44
220 230 247 220 217 219 229 242 250 250 248 242 236 236 236 232 225 228 227 224 229 234 258 267 259 252 254 252 277 300 285 337 320 313 350 309 335 12 6 289 332 332 196 185 193 232 57 47 62 15 86 90 81 98
217 227 246 220 222 233 233 244 243 245 253 240 242 241 238 233 232 228 230 231 215 232 265 269 266 272 261 254 257 225 236 206 233 314 283 311 314 328 340 298 320 320 72 237 157 145 96 76 62 56 69 75 91 98
240 241 241 219 234 237 240 242 247 251 241 242 245 243 237 234 230 229 227 231 223 187 226 274 283 271 275 238 231 234 236 246 293 307 302 320 288 296 279 317 248 332 323 346 40 97 94 61 65 74 75 85 88 94
249 236 216 227 231 238 244 248 244 235 246 252 249 247 246 243 238 236 231 228 226 200 222 281 299 286 264 246 240 238 230 237 261 305 263 257 289 303 254 247 27 346 9 337 27 332 71 62 67 84 80 77 83 94
212 210 225 227 237 242 244 244 238 246 253 241 247 249 254 257 251 230 190 206 215 201 94 301 290 279 281 271 217 223 217 227 222 240 267 280 273 246 297 102 35 7 38 77 97 77 95 95 79 77 79 79 83 90
229 219 222 228 231 237 251 241 242 247 242 248 242 251 244 256 242 196 186 199 203 195 190 298 295 282 251 206 196 207 217 205 225 237 240 238 264 230 263 69 36 33 37 35 31 163 65 68 81 68 63 69 71 84
218 220 223 226 235 244 241 239 237 235 240 247 253 220 208 184 149 106 116 154 158 150 173 221 269 322 205 213 192 183 163 180 214 238 249 237 257 264 96 62 30 25 53 44 53 76 99 101 81 69 63 60 66 74
221 227 232 234 241 237 230 239 225 223 253 230 202 139 122 101 77 104 128 145 149 166 162 183 213 247 178 215 181 169 161 159 213 217 224 190 120 221 27 77 39 29 32 23 49 76 83 75 77 69 56 57 76 83
230 235 235 233 232 221 228 226 223 209 163 160 136 102 99 116 116 117 125 147 191 227 214 217 209 232 190 231 165 132 181 198 202 223 161 109 120 103 93 80 46 24 13 30 13 60 58 73 64 57 76 91 89 93
229 230 234 230 219 230 216 203 178 163 156 144 105 81 134 136 93 91 134 156 190 230 217 225 204 174 207 191 183 200 176 188 221 197 219 159 145 126 122 83 55 40 33 45 74 88 98 95 97 99 99 103 100 99
233 228 227 231 222 215 196 195 167 159 152 145 132 122 130 148 94 114 172 182 219 232 199 185 210 210 209 213 214 183 192 150 207 143 130 206 233 129 123 76 56 47 48 65 75 86 87 101 95 103 115 117 112 107
229 226 226 210 176 179 187 171 163 145 140 123 116 121 144 169 178 200 186 197 202 207 207 200 146 163 203 237 328 112 141 196 104 48 199 173 136 142 120 63 47 47 53 71 82 83 89 95 98 100 110 111 112 110
213 190 171 172 174 170 166 161 146 144 139 106 142 138 202 190 215 198 175 179 153 255 219 144 101 99 61 52 352 149 300 1 69 107 229 112 144 139 131 33 7 54 81 89 93 99 102 105 104 103 101 100 99 97
179 176 171 172 171 168 162 144 144 152 111 105 131 166 195 159 92 138 147 162 132 195 162 112 91 89 54 114 189 105 37 339 217 235 216 142 151 149 122 106 104 106 105 107 105 106 104 103 103 99 92 87 80 73
155 152 164 164 163 156 151 153 158 103 82 83 69 96 135 96 14 79 114 134 119 146 120 112 120 65 63 118 63 209 112 229 247 211 140 146 137 130 125 122 119 115 113 111 110 108 106 103 100 96 96 92 83 69
152 142 161 154 152 152 155 157 152 56 72 69 59 83 91 83 88 81 72 52 58 92 122 91 65 138 116 54 90 58 183 219 153 137 142 142 138 136 135 134 132 129 126 123 120 115 111 105 97 88 82 83 77 66
139 151 148 149 145 143 143 151 97 101 78 66 92 79 74 80 81 56 43 52 75 82 59 97 114 69 152 157 258 211 136 133 138 137 136 137 138 136 138 137 135 132 127 123 120 115 108 95 77 60 41 23 7 2
141 143 143 147 149 137 114 90 43 87 70 80 88 83 88 82 64 63 81 84 99 111 116 67 70 120 226 211 171 149 147 144 141 136 131 134 136 136 138 138 136 135 134 135 134 131 108 11 322 306 292 291 290 296
141 137 137 153 160 105 90 78 86 94 107 108 114 93 78 72 68 64 88 96 97 62 54 55 180 219 265 154 151 150 152 149 142 136 139 142 144 146 148 150 151 153 153 147 149 155 244 308 321 312 296 270 272 282
148 141 149 148 116 67 83 98 75 91 111 100 118 83 82 74 50 41 40 47 62 45 76 102 117 101 109 124 138 146 151 156 156 153 151 151 154 157 155 160 169 166 145 127 117 264 289 308 310 308 305 293 281 278
134 132 127 113 75 71 74 71 112 110 91 132 112 95 88 83 72 52 57 57 70 75 129 144 133 133 134 136 139 142 144 153 151 150 149 151 155 159 159 162 176 205 238 255 269 282 293 297 298 297 304 309 312 314
137 141 94 82 94 80 126 135 87 98 108 138 112 82 52 96 101 73 72 65 94 141 146 141 141 145 139 137 141 141 143 150 148 150 151 151 152 151 162 186 202 227 247 259 274 298 317 329 317 305 303 298 305 304
100 80 105 112 101 127 143 127 110 104 119 123 107 116 186 144 150 73 112 133 147 155 157 152 150 140 136 139 141 141 147 161 158 155 158 166 172 180 194 217 232 258 263 272 286 302 314 331 327 321 312 306 301 299
128 29 98 44 121 111 95 49 78 75 131 170 99 287 215 161 82 69 170 160 165 168 162 159 161 159 151 149 147 146 143 155 174 172 170 172 196 183 176 185 246 314 306 302 302 297 294 298 298 298 307 311 315 313
82 24 56 136 133 111 169 134 168 167 133 118 194 116 131 92 87 223 219 171 172 174 168 165 161 157 157 161 158 156 154 152 172 183 195 192 182 219 248 278 290 294 302 307 307 303 299 292 286 287 291 295 300 300
99 332 57 61 110 110 78 80 97 97 105 152 175 103 83 111 215 255 146 165 178 174 168 166 166 167 168 162 161 162 168 174 193 221 229 223 242 257 260 265 272 287 293 298 303 305 308 309 305 301 301 302 302 304
96 66 136 43 72 46 110 63 64 95 207 67 121 78 137 168 195 154 158 168 173 167 162 159 161 161 166 168 173 185 195 210 219 220 197 228 288 305 292 303 302 300 301 302 307 311 317 321 324 323 321 322 320 320
70 89 95 50 62 53 43 81 169 70 24 93 113 143 139 101 130 151 151 157 162 167 166 170 171 172 175 182 190 187 183 186 203 229 250 278 292 285 292 305 306 304 308 315 320 326 324 322 319 318 319 318 314 313
79 61 93 71 72 43 14 24 48 103 102 108 107 112 99 99 120 146 151 159 166 176 179 176 171 172 183 179 179 183 199 220 233 250 268 294 303 307 309 307 305 307 315 322 325 327 328 327 325 326 326 324 321 320
97 94 82 75 90 114 105 90 83 100 93 93 131 125 117 110 107 125 152 161 168 169 173 176 179 174 172 180 187 193 200 207 237 280 298 306 309 311 315 325 336 344 347 342 336 330 326 324 323 323 322 321 321 321
57 87 123 107 132 156 111 76 76 78 84 94 84 111 115 95 87 145 150 155 164 176 178 178 183 186 186 182 178 180 205 237 257 285 307 322 330 336 345 350 346 343 341 337 334 331 328 326 325 325 326 325 323 322
96 102 107 106 129 174 159 133 102 94 68 89 112 108 110 123 145 162 169 161 154 160 173 174 173 173 182 185 177 176 195 240 270 280 326 348 355 352 346 339 336 335 335 333 331 330 329 329 329 328 326 325 324 324